Weather in Bila Tserkva

Ukraine / Kyiv Region     49°47′44″N   30°07′02″E
temp.,
°C
wind,
m/s
gust,
m/s
humid.,
%
clouds,
%
prec.,
mm/h
press.,
hPa
HPBL,
m
25 february, thu
thu2523:00+2wnw33100100 0.0 103257
02:00+2w34100100 0.0 103277
05:00+3wnw34100100 0.0 103157
08:00+3w45100100 0.0 103087
11:00+4w47100100 0.0 1030126
14:00+4w510100100 0.0 1030191
17:00+4wnw48100100 0.0 1028121
20:00+3w47100100 0.0 1029119
26 february, fri
fri2623:00+3w34100100 0.0 102868
02:00+3wsw3499100 0.0 102869
05:00+2wsw4799100 0.0 1026155
08:00+2sw469189 0.0 1024119
11:00+6w510880 0.0 1023292
14:00+8w59870 0.0 1022358
17:00+6w49920 0.0 1020166
20:00+4wnw410969 0.0 1020170
27 february, sat
sat2723:00+4w4996100 0.1 1019167
02:00+4w41090100 0.5 1019258
05:00+3wnw51291100 0.0 1017451
08:00+3wnw51286100 0.1 1017801
11:00+4wnw71075100 0.0 1017906
14:00+4wnw71191100 0.1 1016757
17:00+3wnw5118189 0.3 1016593
20:00+2nnw6119377 0.6 1018659
28 february, sun
sun2823:00+1nnw71196100 0.4 1019670
02:00+1nnw61089100 0.4 1022718
05:000nnw51097100 0.2 1022500
08:000nnw6108798 0.4 1024691
11:00+2nnw687485 0.1 10251040
14:00+2nnw587593 0.2 1025892
17:00+2nnw687499 0.1 1026915
20:00+1nnw488499 0.1 1027579
1 march, mon
mon123:000nnw4891100 0.1 1029439
02:00−1nnw489099 0.1 1030361
05:00−2nnw369294 0.0 1031235
08:00−1n468579 0.0 1032413
11:00+1n456788 0.1 1034967
14:00+3nnw355680 0.1 10341054
17:00+2nw35670 0.0 1034219
20:00+2nw378013 0.0 1034271